Location: Taaricht
(32.5378°N, 5.4251°W)
Time: 14:01:42
(UTC+00:00)

CZ-2C R/B - Pass Details

Date: 09 April 2020
Orbit: 639 x 705 km, 98.4° (Epoch: 05 June)

Event Time Altitude Azimuth Distance (km) Brightness Sun altitude
Rises 20:29:52 0° 7° (N) 3,058 7.4 -21.3°
Reaches altitude 10° 20:32:09 10° 3° (N) 2,129 6.6 -21.8°
Maximum altitude 20:36:42 56° 286° (WNW) 798 4.3 -22.6°
Drops below altitude 10° 20:41:08 10° 208° (SSW) 2,076 6.2 -23.5°
Sets 20:43:21 0° 204° (SSW) 2,974 7.0 -23.9°
